Location: Moy Burn
(57.3833°N, 4.0667°W)
Time: 10:15:52
(UTC+00:00)

Cosmos 1605 Rocket - Pass Details

Date: 08 August 2020
Orbit: 945 x 1005 km, 82.9° (Epoch: 18 September)

Event Time Altitude Azimuth Distance (km) Brightness Sun altitude
Exits shadow 22:05:45 - 191° (S) 3,280 6.3 -11.6°
Reaches altitude 10° 22:07:20 10° 192° (SSW) 2,681 5.9 -11.7°
Maximum altitude 22:13:28 86° 282° (WNW) 960 4.0 -12.1°
Drops below altitude 10° 22:19:36 10° 12° (NNE) 2,681 7.0 -12.6°
Sets 22:22:06 0° 13° (NNE) 3,630 7.8 -12.7°
